Regional Weather Roundup
Issued by NWS Goodland, KS

Home | Current Version | Previous Version | Graphics & Text | Print | Product List | Glossary On
Versions: 1 2 3 4 5 6 7 8 9 10 11 12 13 14 15 16 17 18 19 20 21 22 23 24 25 26 27 28 29 30 31 32 33 34 35 36 37 38 39 40 41 42 43 44 45 46 47 48 49 50
000
ASUS43 KGLD 231359
RWRGLD

GOODLAND FORECAST AREA HOURLY WEATHER ROUNDUP
NATIONAL WEATHER SERVICE GOODLAND KS
800 AM MDT SAT JUL 23 2016

...OFFICIAL OBSERVATIONS...

CITY           SKY/WX    TMP DP  RH WIND       PRES   REMARKS
GOODLAND KS    SUNNY     75  64  68 SE13      29.95F
HILL CITY KS   PTSUNNY   78  70  76 SE8       29.89F
IMPERIAL NEB   CLOUDY    75  65  70 SW6       29.96R
MCCOOK NEB     CLOUDY    77  66  68 S7        29.90R
AKRON CO       CLOUDY    71  61  70 W9        30.05S
BURLINGTON CO  SUNNY     74  61  63 S5        30.00S
LIMON CO       SUNNY     78  47  33 W9        30.11R
$$

...UNOFFICIAL OBSERVATIONS...

CITY           SKY/WX    TMP DP  RH WIND       PRES   REMARKS
COLBY KS       SUNNY     75  70  83 SE14      29.95S
LENORA KS        N/A     77  32  19 MISG        N/A
NORTON KS      SUNNY     73  64  73 S5        29.88F
$$




USA.gov is the U.S. government's official web portal to all federal, state and local government web resources and services.